TimeCST,TemperatureF,Dew PointF,Humidity,Sea Level PressureIn,VisibilityMPH,Wind Direction,Wind SpeedMPH,Gust SpeedMPH,PrecipitationIn,Events,Conditions,WindDirDegrees,DateUTC
12:53 AM,7.0,1.0,77,30.57,10.0,NW,6.9,-,N/A,,Clear,320,2014-02-06 06:53:00
1:53 AM,6.1,-0.0,76,30.58,10.0,NW,6.9,-,N/A,,Clear,310,2014-02-06 07:53:00
2:53 AM,6.1,-0.0,76,30.58,10.0,NW,10.4,-,N/A,,Clear,320,2014-02-06 08:53:00
3:53 AM,6.1,-0.9,73,30.58,10.0,NW,6.9,-,N/A,,Mostly Cloudy,320,2014-02-06 09:53:00
4:53 AM,5.0,-2.0,73,30.58,10.0,NNW,4.6,-,N/A,,Mostly Cloudy,330,2014-02-06 10:53:00
5:53 AM,5.0,-2.0,73,30.61,10.0,NNW,6.9,-,N/A,,Mostly Cloudy,330,2014-02-06 11:53:00
6:53 AM,6.1,-2.0,69,30.63,10.0,NW,9.2,-,N/A,,Overcast,320,2014-02-06 12:53:00
7:53 AM,6.1,-2.0,69,30.63,10.0,North,6.9,-,N/A,,Overcast,350,2014-02-06 13:53:00
8:53 AM,7.0,-0.9,70,30.62,9.0,North,8.1,-,0.01,Snow,Light Snow,350,2014-02-06 14:53:00
9:53 AM,10.0,-0.9,61,30.61,10.0,North,6.9,-,0.00,,Overcast,350,2014-02-06 15:53:00
10:53 AM,12.0,1.0,61,30.61,10.0,North,4.6,-,0.02,,Scattered Clouds,350,2014-02-06 16:53:00
11:53 AM,12.0,1.0,61,30.58,6.0,North,5.8,-,0.00,Snow,Light Snow,10,2014-02-06 17:53:00
12:53 PM,14.0,3.0,62,30.55,8.0,NNW,3.5,-,0.00,Snow,Light Snow,330,2014-02-06 18:53:00
1:53 PM,15.1,3.9,61,30.53,4.0,Variable,4.6,-,0.00,Snow,Light Snow,0,2014-02-06 19:53:00
2:53 PM,16.0,5.0,62,30.53,10.0,WNW,8.1,-,0.00,,Overcast,290,2014-02-06 20:53:00
3:53 PM,17.1,3.9,56,30.51,10.0,Calm,Calm,-,N/A,,Scattered Clouds,0,2014-02-06 21:53:00
4:53 PM,18.0,1.9,50,30.49,10.0,Calm,Calm,-,N/A,,Clear,0,2014-02-06 22:53:00
5:53 PM,15.1,1.9,56,30.49,10.0,NW,3.5,-,N/A,,Clear,310,2014-02-06 23:53:00
6:53 PM,14.0,1.0,56,30.49,10.0,Calm,Calm,-,N/A,,Clear,0,2014-02-07 00:53:00
7:53 PM,12.0,-0.0,59,30.51,10.0,Calm,Calm,-,N/A,,Clear,0,2014-02-07 01:53:00
8:53 PM,9.0,-0.0,67,30.51,10.0,NNW,4.6,-,N/A,,Clear,330,2014-02-07 02:53:00
9:53 PM,10.0,-0.9,61,30.49,10.0,NNW,4.6,-,N/A,,Clear,340,2014-02-07 03:53:00
10:53 PM,8.1,-0.0,70,30.49,10.0,WNW,3.5,-,N/A,,Clear,290,2014-02-07 04:53:00
11:53 PM,7.0,-2.0,67,30.47,10.0,Calm,Calm,-,N/A,,Clear,0,2014-02-07 05:53:00